Simultaneous Nadir Overpasses (SNOs) Predictions

Prediction of SNOs between AQUA and METOP-B Satellite Orbit:

Table of predicted SNOs for the next 14.0 days since TLE Epoch: 6/18/2021
Index Date (AQUA) Time (AQUA) Lat,Lon (AQUA) SZA (AQUA ) Date (METOP-B) Time (METOP-B) Lat,Lon (METOP-B) SZA (METOP-B ) Distance(km) Time Diff (sec)
1 06/20/2021 03:15:12 73.75, 125.56 50.33 06/20/2021 03:14:43 73.76, 125.49 50.35 2.38 29
2 06/20/2021 04:04:39 -73.82, -66.94 129.60 06/20/2021 04:05:24 -73.82, -67.03 129.60 2.98 45
3 06/22/2021 21:59:46 -73.10, 25.72 130.35 06/22/2021 21:58:40 -73.07, 23.01 130.26 87.74 66
4 06/22/2021 22:49:26 73.76,-168.03 50.36 06/22/2021 22:49:05 73.78,-168.03 50.39 2.22 21
5 06/22/2021 23:38:53 -73.83, -0.53 129.57 06/22/2021 23:39:46 -73.85, -0.55 129.56 2.49 53
6 06/25/2021 17:34:08 -73.49, 91.37 129.87 06/25/2021 17:32:57 -73.40, 90.15 129.90 39.84 71
7 06/25/2021 18:23:41 73.79,-101.63 50.45 06/25/2021 18:23:29 73.76,-101.68 50.43 3.06 12
8 06/25/2021 19:13:08 -73.85, 65.87 129.48 06/25/2021 19:14:10 -73.83, 65.80 129.51 2.94 62
9 06/28/2021 13:08:27 -73.72, 157.31 129.50 06/28/2021 13:07:14 -73.73, 157.31 129.48 0.41 73
10 06/28/2021 13:57:56 73.81, -35.25 50.60 06/28/2021 13:57:52 73.79, -35.21 50.58 3.20 4
11 06/28/2021 14:47:23 -73.88, 132.25 129.33 06/28/2021 14:48:33 -73.86, 132.27 129.36 2.31 70
12 07/01/2021 08:42:41 -73.76,-136.32 129.29 07/01/2021 08:41:36 -73.75,-136.23 129.29 3.05 65
13 07/01/2021 09:32:09 73.80, 31.23 50.76 07/01/2021 09:32:14 73.81, 31.25 50.77 1.84 5



Historial Predications of SNOs between AQUA and METOP-B
